Location: San Antonio
(29.4240°N, 98.4930°W)
Time: 09:39:25
(UTC-05:00)

ACS3 Solar Sail - Pass Details

Date: 26 June 2024
Orbit: 992 x 1023 km, 97.4° (Epoch: 11 July)

Event Time Altitude Azimuth Distance (km) Brightness Sun altitude
Exits shadow 22:05:31 19° 98° (E) 2,161 6.1 -16.7°
Maximum altitude 22:07:42 23° 69° (ENE) 1,967 6.1 -17.1°
Drops below altitude 10° 22:12:23 10° 20° (NNE) 2,759 7.4 -17.9°
Sets 22:15:22 0° 6° (N) 3,710 8.3 -18.4°
